Change the Weather History Date:

Thursday, August 22, 2013

  Actual Average Record
Temperature  
Mean Temperature 83 °F -  
Max Temperature 88 °F 85 °F 91 °F (2005)
Min Temperature 78 °F 75 °F 73 °F (2012)
Cooling Degree Days 18    
Growing Degree Days 33 (Base 50)    
Moisture  
Dew Point 74 °F    
Average Humidity 76    
Maximum Humidity 82    
Minimum Humidity 53    
Precipitation  
Precipitation 0.12 in - - ()
Sea Level Pressure  
Sea Level Pressure 30.06 in    
Wind  
Wind Speed 10 mph (East)    
Max Wind Speed 18 mph    
Max Gust Speed -    
Visibility 9 miles    
Events Rain    
Averages and records for this station are not official NWS values.
T = Trace of Precipitation, MM = Missing Value Source: NWS Daily Summary

Daily Weather History Graph

Daily Weather History Graph

Search for Another Location

Airport or City:

Trip Planner

Search our weather history database for the weather conditions in past years. The results will help you decide how hot, cold, wet, or windy it might be!

Date:

Astronomy

Aug. 22, 2013 Rise Set
Actual Time 6:55 AM EDT 7:54 PM EDT
Civil Twilight 6:31 AM EDT 8:18 PM EDT
Nautical Twilight 6:02 AM EDT 8:46 PM EDT
Astronomical Twilight 5:33 AM EDT 9:16 PM EDT
Moon 8:53 PM EDT (8/22) 8:29 AM EDT (8/22)
Length of Visible Light 13h 46m
Length of Day
12h 58m
Waning Gibbous, 97% of the Moon is Illuminated
Aug 22
Waning Gibbous
Aug 28
Last Quarter
Sep 5
New
Sep 12
First Quarter
Sep 19
Full

Hourly Weather History & Observations

Time (EDT) Temp. Heat Index Dew Point Humidity Pressure Visibility Wind Dir Wind Speed Gust Speed Precip Events Conditions
12:58 AM 82.6 °F 90.5 °F 76.3 °F 81% 30.09 in 10.0 mi ESE 10.4 mph - N/A   Clear
1:22 AM 82.4 °F 89.5 °F 75.2 °F 79% 30.08 in 10.0 mi ESE 11.5 mph - N/A   Light Drizzle
1:58 AM 81.3 °F 87.6 °F 75.4 °F 82% 30.09 in 10.0 mi South 6.9 mph - 0.00 in   Light Drizzle
2:58 AM 79.9 °F - 73.8 °F 81% 30.09 in 10.0 mi SE 5.8 mph - 0.00 in   Light Drizzle
3:01 AM 80.6 °F 85.4 °F 73.4 °F 79% 30.08 in 10.0 mi SSE 6.9 mph - N/A   Clear
3:58 AM 81.0 °F 86.5 °F 74.7 °F 81% 30.08 in 10.0 mi SE 9.2 mph - 0.00 in   Clear
4:58 AM 80.6 °F 85.5 °F 73.9 °F 80% 30.06 in 10.0 mi SE 6.9 mph - N/A   Clear
5:58 AM 81.0 °F 86.2 °F 73.9 °F 79% 30.08 in 10.0 mi East 6.9 mph - N/A   Clear
6:58 AM 81.0 °F 86.3 °F 74.3 °F 80% 30.09 in 10.0 mi ESE 5.8 mph - N/A   Clear
7:58 AM 81.7 °F 88.5 °F 75.7 °F 82% 30.09 in 10.0 mi SE 10.4 mph - N/A   Clear
8:58 AM 82.6 °F 90.8 °F 76.6 °F 82% 30.09 in 10.0 mi ESE 8.1 mph - N/A   Clear
9:58 AM 85.1 °F 95.8 °F 77.0 °F 77% 30.12 in 10.0 mi East 5.8 mph - N/A   Clear
10:58 AM 86.4 °F 95.1 °F 74.5 °F 68% 30.12 in 10.0 mi East 9.2 mph - N/A   Clear
11:58 AM 87.4 °F 91.2 °F 68.2 °F 53% 30.11 in 10.0 mi ESE 9.2 mph - N/A   Clear
12:58 PM 88.2 °F 95.0 °F 72.3 °F 59% 30.09 in 10.0 mi ESE 11.5 mph - N/A   Clear
1:58 PM 87.6 °F 95.7 °F 73.4 °F 63% 30.08 in 10.0 mi ESE 11.5 mph - N/A   Clear
2:58 PM 86.5 °F 96.4 °F 75.9 °F 70% 30.06 in 10.0 mi ESE 17.3 mph - N/A   Partly Cloudy
3:58 PM 84.2 °F 92.3 °F 75.2 °F 74% 30.06 in 10.0 mi ENE 12.7 mph - N/A   Clear
4:58 PM 84.4 °F 92.7 °F 75.4 °F 74% 30.04 in 10.0 mi ENE 11.5 mph - N/A   Clear
5:23 PM 84.2 °F 92.3 °F 75.2 °F 74% 30.02 in 10.0 mi NE 16.1 mph - N/A   Mostly Cloudy
5:25 PM 82.4 °F 89.5 °F 75.2 °F 79% 30.02 in 10.0 mi ENE 17.3 mph - N/A   Light Drizzle
5:30 PM 82.4 °F 88.2 °F 73.4 °F 74% 30.02 in 1.5 mi ENE 18.4 mph - N/A Rain Heavy Rain
5:35 PM 80.6 °F 85.4 °F 73.4 °F 79% 30.02 in 1.0 mi NE 15.0 mph - N/A Rain Rain
5:40 PM 78.8 °F - 71.6 °F 78% 30.02 in 3.0 mi NE 12.7 mph - N/A Rain Light Rain
5:42 PM 78.8 °F - 71.6 °F 78% 30.02 in 7.0 mi NE 13.8 mph - N/A   Scattered Clouds
5:58 PM 79.7 °F - 72.0 °F 77% 30.04 in 10.0 mi NE 12.7 mph - 0.12 in   Partly Cloudy
6:58 PM 80.4 °F 85.0 °F 73.4 °F 79% 30.03 in 10.0 mi ENE 17.3 mph - N/A   Clear
7:58 PM 80.1 °F 83.8 °F 72.0 °F 76% 30.03 in 10.0 mi East 11.5 mph - N/A   Clear
8:58 PM 81.7 °F 87.6 °F 74.3 °F 78% 30.04 in 10.0 mi ESE 10.4 mph - N/A   Clear
9:58 PM 81.3 °F 87.4 °F 75.0 °F 81% 30.04 in 10.0 mi SE 6.9 mph - N/A   Clear
10:58 PM 82.2 °F 89.1 °F 75.2 °F 79% 30.04 in 10.0 mi ESE 11.5 mph - N/A   Clear
11:58 PM 82.2 °F 88.8 °F 74.8 °F 78% 30.06 in 10.0 mi SE 11.5 mph - N/A   Clear